Terminal Aerodrome Forecast
Issued by NWS

Home | Current Version | Previous Version | Text Only | Print | Product List | Glossary Off
Versions: 1 2 3 4 5 6 7 8 9 10 11 12 13 14 15 16 17 18 19 20 21 22 23 24 25 26 27 28 29 30 31 32 33 34

000
FTUS45 KGGW 051500 AAA
TAFOLF
TAF AMD
KOLF 051556Z 0516/0612 04010KT 3SM FU BKN090
     FM051800 01013KT P6SM VCSH BKN045 BKN070
     FM060000 35010KT P6SM BKN070
     FM060300 VRB05KT P6SM BKN060=

USA.gov is the U.S. government's official web portal to all federal, state and local government web resources and services.